Location: Newark
(51.3318°N, 0.0053°E)
Time: 03:05:23
(UTC+00:00)

ITUPSAT 1 - Pass Details

Date: 30 June 2022
Orbit: 701 x 711 km, 98.6° (Epoch: 09 August)

Event Time Altitude Azimuth Distance (km) Brightness Sun altitude
Rises 21:44:22 0° 7° (N) 3,112 ? -9.5°
Reaches altitude 10° 21:46:52 10° 357° (N) 2,190 ? -9.7°
Maximum altitude 21:50:56 28° 299° (WNW) 1,313 ? -10.0°
Drops below altitude 10° 21:54:59 10° 241° (WSW) 2,183 ? -10.3°
Sets 21:57:28 0° 230° (SW) 3,099 ? -10.5°
